Powrót do katalogu

INTELSAT 33E DEB

AktywnyMEO
NORAD 64406·DEBRIS· XX

Wystrzelony Aug 24, 2016 z Guiana Space Centre

Loading…

Następne Przeloty (najbliższe 24 godziny)

TLE

ŚwieżeSource: Space-Track

Epoka: Sep 8, 2026, 14:46 UTC

1 64406U 16053AL  26251.61593988  .00000017  00000-0  00000-0 0  9998
2 64406   1.6743  70.8331 0132200  50.6126 311.3761  0.98886758  6662

Śledź INTELSAT 33E DEB w czasie rzeczywistym z AllMySat

Download on the App Store